Time,TemperatureF,DewpointF,PressureIn,WindDirection,WindDirectionDegrees,WindSpeedMPH,WindSpeedGustMPH,Humidity,HourlyPrecipIn,Conditions,Clouds,dailyrainin,SoftwareType,DateUTC
2013-09-13 00:00:00,67.6,66.7,29.67,West,261,1.0,0.0,97,0.06,,,0.00,WeatherTracker,2013-09-13 04:00:00,
2013-09-13 00:05:00,67.6,66.7,29.67,West,267,1.0,0.0,97,0.05,,,0.00,WeatherTracker,2013-09-13 04:05:00,
2013-09-13 00:15:00,67.4,66.5,29.67,West,263,1.0,0.0,97,0.04,,,0.00,WeatherTracker,2013-09-13 04:15:00,
2013-09-13 00:20:00,67.4,66.5,29.66,West,260,0.0,0.0,97,0.03,,,0.00,WeatherTracker,2013-09-13 04:20:00,
2013-09-13 00:25:00,67.4,66.5,29.66,West,268,1.0,0.0,97,0.03,,,0.00,WeatherTracker,2013-09-13 04:25:00,
2013-09-13 00:30:00,67.4,66.5,29.66,SSW,213,1.0,0.0,97,0.02,,,0.00,WeatherTracker,2013-09-13 04:30:00,
2013-09-13 00:35:00,67.5,66.6,29.66,West,277,3.0,0.0,97,0.02,,,0.00,WeatherTracker,2013-09-13 04:35:00,
2013-09-13 00:45:00,67.5,66.6,29.65,SW,217,2.0,0.0,97,0.01,,,0.00,WeatherTracker,2013-09-13 04:45:00,
2013-09-13 00:55:00,67.5,66.9,29.65,NW,313,0.0,0.0,98,0.00,,,0.00,WeatherTracker,2013-09-13 04:55:00,
2013-09-13 01:05:00,67.5,66.9,29.66,NW,313,0.0,0.0,98,0.00,,,0.00,WeatherTracker,2013-09-13 05:05:00,
2013-09-13 01:10:00,67.5,66.9,29.66,NW,325,2.0,0.0,98,0.00,,,0.00,WeatherTracker,2013-09-13 05:10:00,
2013-09-13 01:20:00,67.6,67.0,29.66,NW,308,2.0,0.0,98,0.00,,,0.00,WeatherTracker,2013-09-13 05:20:00,
2013-09-13 01:25:00,67.5,66.9,29.66,NW,309,0.0,0.0,98,0.00,,,0.00,WeatherTracker,2013-09-13 05:25:00,
2013-09-13 01:35:00,67.4,66.8,29.66,West,265,1.0,0.0,98,0.00,,,0.00,WeatherTracker,2013-09-13 05:35:00,
2013-09-13 01:40:00,67.4,66.8,29.65,West,266,0.0,0.0,98,0.00,,,0.00,WeatherTracker,2013-09-13 05:40:00,
2013-09-13 01:45:00,67.3,66.7,29.65,NNW,333,3.0,0.0,98,0.00,,,0.00,WeatherTracker,2013-09-13 05:45:00,
2013-09-13 01:55:00,67.3,66.7,29.66,NW,316,2.0,0.0,98,0.00,,,0.00,WeatherTracker,2013-09-13 05:55:00,
2013-09-13 02:00:00,67.2,66.6,29.66,WNW,295,0.0,0.0,98,0.00,,,0.00,WeatherTracker,2013-09-13 06:00:00,
2013-09-13 02:05:00,67.2,66.6,29.66,WSW,245,0.0,0.0,98,0.00,,,0.00,WeatherTracker,2013-09-13 06:05:00,
2013-09-13 02:15:00,67.2,66.6,29.65,West,270,1.0,0.0,98,0.00,,,0.00,WeatherTracker,2013-09-13 06:15:00,
2013-09-13 02:20:00,67.2,66.6,29.64,West,274,1.0,0.0,98,0.00,,,0.00,WeatherTracker,2013-09-13 06:20:00,
2013-09-13 02:25:00,67.2,66.6,29.64,West,275,0.0,0.0,98,0.00,,,0.00,WeatherTracker,2013-09-13 06:25:00,
2013-09-13 02:35:00,67.2,66.6,29.63,West,273,0.0,0.0,98,0.00,,,0.00,WeatherTracker,2013-09-13 06:35:00,
2013-09-13 02:40:00,67.3,66.7,29.63,West,273,0.0,0.0,98,0.00,,,0.00,WeatherTracker,2013-09-13 06:40:00,
2013-09-13 02:45:00,67.3,66.7,29.63,West,273,0.0,0.0,98,0.00,,,0.00,WeatherTracker,2013-09-13 06:45:00,
2013-09-13 02:55:00,67.3,66.7,29.62,WNW,299,1.0,0.0,98,0.00,,,0.00,WeatherTracker,2013-09-13 06:55:00,
2013-09-13 03:00:00,67.3,66.7,29.62,WNW,296,1.0,0.0,98,0.00,,,0.00,WeatherTracker,2013-09-13 07:00:00,
2013-09-13 03:05:00,67.3,66.7,29.62,West,267,0.0,0.0,98,0.00,,,0.00,WeatherTracker,2013-09-13 07:05:00,
2013-09-13 03:10:00,67.3,66.7,29.62,West,267,0.0,0.0,98,0.00,,,0.00,WeatherTracker,2013-09-13 07:10:00,
2013-09-13 03:20:00,67.3,66.7,29.61,West,267,1.0,0.0,98,0.00,,,0.00,WeatherTracker,2013-09-13 07:20:00,
2013-09-13 03:25:00,67.4,66.8,29.61,West,267,0.0,0.0,98,0.00,,,0.00,WeatherTracker,2013-09-13 07:25:00,
2013-09-13 03:30:00,67.3,66.7,29.61,West,267,0.0,0.0,98,0.00,,,0.00,WeatherTracker,2013-09-13 07:30:00,
2013-09-13 03:35:00,67.4,66.8,29.61,West,267,0.0,0.0,98,0.00,,,0.00,WeatherTracker,2013-09-13 07:35:00,
2013-09-13 03:45:00,67.4,66.8,29.61,West,267,0.0,0.0,98,0.00,,,0.00,WeatherTracker,2013-09-13 07:45:00,
2013-09-13 03:50:00,67.4,66.8,29.61,West,267,0.0,0.0,98,0.00,,,0.00,WeatherTracker,2013-09-13 07:50:00,
2013-09-13 04:00:00,67.3,66.7,29.61,West,267,0.0,0.0,98,0.00,,,0.00,WeatherTracker,2013-09-13 08:00:00,
2013-09-13 04:10:00,67.3,66.7,29.60,West,267,0.0,0.0,98,0.00,,,0.00,WeatherTracker,2013-09-13 08:10:00,
2013-09-13 04:20:00,67.3,66.7,29.60,West,267,0.0,0.0,98,0.00,,,0.00,WeatherTracker,2013-09-13 08:20:00,
2013-09-13 04:25:00,67.3,66.7,29.61,West,267,0.0,0.0,98,0.00,,,0.00,WeatherTracker,2013-09-13 08:25:00,
2013-09-13 04:30:00,67.4,66.8,29.60,West,267,0.0,0.0,98,0.00,,,0.00,WeatherTracker,2013-09-13 08:30:00,
2013-09-13 04:40:00,67.4,66.8,29.60,West,267,0.0,0.0,98,0.01,,,0.01,WeatherTracker,2013-09-13 08:40:00,
2013-09-13 04:45:00,67.4,66.8,29.61,West,266,0.0,0.0,98,0.01,,,0.01,WeatherTracker,2013-09-13 08:45:00,
2013-09-13 04:50:00,67.4,66.8,29.61,West,266,0.0,0.0,98,0.01,,,0.01,WeatherTracker,2013-09-13 08:50:00,
2013-09-13 04:55:00,67.4,66.8,29.60,West,266,0.0,0.0,98,0.01,,,0.01,WeatherTracker,2013-09-13 08:55:00,
2013-09-13 05:00:00,67.4,66.8,29.60,West,266,0.0,0.0,98,0.01,,,0.01,WeatherTracker,2013-09-13 09:00:00,
2013-09-13 05:10:00,67.5,67.2,29.61,West,266,0.0,0.0,99,0.01,,,0.01,WeatherTracker,2013-09-13 09:10:00,
2013-09-13 05:15:00,67.6,67.3,29.61,West,266,0.0,0.0,99,0.01,,,0.01,WeatherTracker,2013-09-13 09:15:00,
2013-09-13 05:25:00,67.6,67.3,29.61,West,266,0.0,0.0,99,0.01,,,0.01,WeatherTracker,2013-09-13 09:25:00,
2013-09-13 05:30:00,67.6,67.3,29.61,West,266,0.0,0.0,99,0.01,,,0.01,WeatherTracker,2013-09-13 09:30:00,
2013-09-13 05:35:00,67.6,67.0,29.61,West,268,1.0,0.0,98,0.01,,,0.01,WeatherTracker,2013-09-13 09:35:00,
2013-09-13 05:45:00,67.6,67.0,29.61,WNW,284,2.0,0.0,98,0.00,,,0.01,WeatherTracker,2013-09-13 09:45:00,
2013-09-13 05:55:00,67.6,67.0,29.61,WNW,302,1.0,0.0,98,0.00,,,0.01,WeatherTracker,2013-09-13 09:55:00,
2013-09-13 06:00:00,67.6,67.0,29.62,WNW,282,3.0,0.0,98,0.00,,,0.01,WeatherTracker,2013-09-13 10:00:00,
2013-09-13 06:05:00,67.6,67.0,29.62,WNW,288,4.0,0.0,98,0.00,,,0.01,WeatherTracker,2013-09-13 10:05:00,
2013-09-13 06:10:00,67.6,67.0,29.62,WNW,296,0.0,0.0,98,0.01,,,0.02,WeatherTracker,2013-09-13 10:10:00,
2013-09-13 06:15:00,67.6,67.0,29.62,WNW,296,0.0,0.0,98,0.01,,,0.02,WeatherTracker,2013-09-13 10:15:00,
2013-09-13 06:25:00,67.6,67.0,29.62,WNW,296,0.0,0.0,98,0.01,,,0.02,WeatherTracker,2013-09-13 10:25:00,
2013-09-13 06:30:00,67.6,67.0,29.62,WNW,296,0.0,0.0,98,0.02,,,0.03,WeatherTracker,2013-09-13 10:30:00,
2013-09-13 06:35:00,67.6,67.0,29.62,WNW,296,0.0,0.0,98,0.02,,,0.03,WeatherTracker,2013-09-13 10:35:00,
2013-09-13 06:40:00,67.6,67.0,29.62,WNW,296,0.0,0.0,98,0.02,,,0.03,WeatherTracker,2013-09-13 10:40:00,
2013-09-13 06:50:00,67.6,67.0,29.63,NNW,329,2.0,0.0,98,0.02,,,0.03,WeatherTracker,2013-09-13 10:50:00,
2013-09-13 06:55:00,67.5,67.2,29.63,NNW,329,0.0,0.0,99,0.02,,,0.03,WeatherTracker,2013-09-13 10:55:00,
2013-09-13 07:00:00,67.5,67.2,29.63,NNW,329,0.0,0.0,99,0.02,,,0.03,WeatherTracker,2013-09-13 11:00:00,
2013-09-13 07:05:00,67.4,67.1,29.62,NNW,327,0.0,0.0,99,0.02,,,0.03,WeatherTracker,2013-09-13 11:05:00,
2013-09-13 07:10:00,67.4,67.1,29.63,NNW,329,1.0,0.0,99,0.01,,,0.03,WeatherTracker,2013-09-13 11:10:00,
2013-09-13 07:20:00,67.2,66.6,29.62,NNW,334,0.0,0.0,98,0.03,,,0.05,WeatherTracker,2013-09-13 11:20:00,
2013-09-13 07:25:00,67.2,66.6,29.62,NNW,335,0.0,0.0,98,0.03,,,0.05,WeatherTracker,2013-09-13 11:25:00,
2013-09-13 07:30:00,67.1,66.5,29.62,NNW,335,0.0,0.0,98,0.02,,,0.05,WeatherTracker,2013-09-13 11:30:00,
2013-09-13 07:35:00,67.1,66.5,29.62,NNW,334,0.0,0.0,98,0.03,,,0.06,WeatherTracker,2013-09-13 11:35:00,
2013-09-13 07:40:00,67.1,66.5,29.62,NNW,334,1.0,0.0,98,0.03,,,0.06,WeatherTracker,2013-09-13 11:40:00,
2013-09-13 07:50:00,67.0,66.4,29.62,NNW,333,0.0,0.0,98,0.04,,,0.07,WeatherTracker,2013-09-13 11:50:00,
2013-09-13 08:00:00,67.0,66.4,29.62,NNW,333,0.0,0.0,98,0.05,,,0.08,WeatherTracker,2013-09-13 12:00:00,
2013-09-13 08:05:00,67.1,66.5,29.61,NNW,333,0.0,0.0,98,0.05,,,0.08,WeatherTracker,2013-09-13 12:05:00,
2013-09-13 08:10:00,67.2,66.6,29.62,NNW,333,0.0,0.0,98,0.05,,,0.08,WeatherTracker,2013-09-13 12:10:00,
2013-09-13 08:20:00,67.4,67.1,29.62,NNW,335,0.0,0.0,99,0.03,,,0.08,WeatherTracker,2013-09-13 12:20:00,
2013-09-13 08:25:00,67.6,67.3,29.62,NNW,335,0.0,0.0,99,0.03,,,0.08,WeatherTracker,2013-09-13 12:25:00,
2013-09-13 08:35:00,67.7,67.1,29.62,NNW,327,0.0,0.0,98,0.02,,,0.08,WeatherTracker,2013-09-13 12:35:00,
2013-09-13 08:45:00,68.0,67.7,29.61,NNW,327,0.0,0.0,99,0.01,,,0.08,WeatherTracker,2013-09-13 12:45:00,
2013-09-13 08:55:00,68.2,67.6,29.62,West,268,0.0,0.0,98,0.00,,,0.08,WeatherTracker,2013-09-13 12:55:00,
2013-09-13 09:00:00,68.2,67.6,29.62,West,271,2.0,0.0,98,0.00,,,0.08,WeatherTracker,2013-09-13 13:00:00,
2013-09-13 09:05:00,68.2,67.6,29.62,West,271,0.0,0.0,98,0.00,,,0.08,WeatherTracker,2013-09-13 13:05:00,
2013-09-13 09:10:00,68.3,67.7,29.62,West,270,0.0,0.0,98,0.00,,,0.08,WeatherTracker,2013-09-13 13:10:00,
2013-09-13 09:15:00,68.4,67.8,29.62,West,270,0.0,0.0,98,0.00,,,0.08,WeatherTracker,2013-09-13 13:15:00,
2013-09-13 09:25:00,68.5,67.9,29.62,WNW,297,0.0,0.0,98,0.00,,,0.08,WeatherTracker,2013-09-13 13:25:00,
2013-09-13 09:30:00,68.7,68.1,29.62,WNW,298,0.0,0.0,98,0.00,,,0.08,WeatherTracker,2013-09-13 13:30:00,
2013-09-13 09:35:00,68.8,68.2,29.63,WNW,288,0.0,0.0,98,0.00,,,0.08,WeatherTracker,2013-09-13 13:35:00,
2013-09-13 09:45:00,69.2,68.6,29.62,NW,313,0.0,0.0,98,0.00,,,0.08,WeatherTracker,2013-09-13 13:45:00,
2013-09-13 09:50:00,69.4,68.5,29.62,NW,313,0.0,0.0,97,0.00,,,0.08,WeatherTracker,2013-09-13 13:50:00,
2013-09-13 09:55:00,69.7,68.5,29.62,WNW,289,0.0,0.0,96,0.00,,,0.08,WeatherTracker,2013-09-13 13:55:00,
2013-09-13 10:00:00,70.0,68.8,29.62,NNW,337,0.0,0.0,96,0.00,,,0.08,WeatherTracker,2013-09-13 14:00:00,
2013-09-13 10:10:00,70.4,68.6,29.61,NW,320,0.0,0.0,94,0.00,,,0.08,WeatherTracker,2013-09-13 14:10:00,
2013-09-13 10:20:00,70.7,67.9,29.61,West,281,0.0,0.0,91,0.00,,,0.08,WeatherTracker,2013-09-13 14:20:00,
2013-09-13 10:25:00,70.8,68.0,29.61,East,85,0.0,0.0,91,0.00,,,0.08,WeatherTracker,2013-09-13 14:25:00,
2013-09-13 10:35:00,70.8,68.0,29.61,North,355,0.0,0.0,91,0.00,,,0.08,WeatherTracker,2013-09-13 14:35:00,
2013-09-13 10:40:00,71.1,68.3,29.61,North,355,0.0,0.0,91,0.00,,,0.08,WeatherTracker,2013-09-13 14:40:00,
2013-09-13 10:50:00,71.3,67.9,29.61,NW,308,1.0,0.0,89,0.00,,,0.08,WeatherTracker,2013-09-13 14:50:00,
2013-09-13 10:55:00,71.5,68.1,29.61,NW,323,2.0,0.0,89,0.00,,,0.08,WeatherTracker,2013-09-13 14:55:00,
2013-09-13 11:00:00,71.6,67.8,29.61,West,280,0.0,0.0,88,0.00,,,0.08,WeatherTracker,2013-09-13 15:00:00,
2013-09-13 11:05:00,71.6,67.8,29.61,NW,313,2.0,0.0,88,0.00,,,0.08,WeatherTracker,2013-09-13 15:05:00,
2013-09-13 11:15:00,72.2,68.4,29.61,WNW,290,1.0,0.0,88,0.00,,,0.08,WeatherTracker,2013-09-13 15:15:00,
2013-09-13 11:20:00,72.4,68.0,29.61,WNW,286,4.0,0.0,86,0.00,,,0.08,WeatherTracker,2013-09-13 15:20:00,
2013-09-13 11:25:00,72.1,67.7,29.61,NW,320,5.0,0.0,86,0.00,,,0.08,WeatherTracker,2013-09-13 15:25:00,
2013-09-13 11:30:00,72.0,67.9,29.61,West,275,4.0,0.0,87,0.00,,,0.08,WeatherTracker,2013-09-13 15:30:00,
2013-09-13 11:35:00,72.4,68.3,29.61,West,269,3.0,0.0,87,0.00,,,0.08,WeatherTracker,2013-09-13 15:35:00,
2013-09-13 11:40:00,72.9,68.1,29.61,West,267,1.0,0.0,85,0.00,,,0.08,WeatherTracker,2013-09-13 15:40:00,
2013-09-13 11:50:00,74.2,69.0,29.60,WSW,246,0.0,0.0,84,0.00,,,0.08,WeatherTracker,2013-09-13 15:50:00,
2013-09-13 12:04:00,75.9,68.5,29.60,NW,306,2.0,0.0,78,0.00,,,0.08,WeatherTracker,2013-09-13 16:04:00,
2013-09-13 12:10:00,75.3,67.2,29.59,NE,41,2.0,0.0,76,0.00,,,0.08,WeatherTracker,2013-09-13 16:10:00,
2013-09-13 12:20:00,76.3,68.2,29.59,WSW,243,2.0,0.0,76,0.00,,,0.08,WeatherTracker,2013-09-13 16:20:00,
2013-09-13 12:30:00,75.9,67.8,29.59,West,261,1.0,0.0,76,0.00,,,0.08,WeatherTracker,2013-09-13 16:30:00,
2013-09-13 12:40:00,76.6,67.3,29.58,ESE,122,0.0,0.0,73,0.00,,,0.08,WeatherTracker,2013-09-13 16:40:00,
2013-09-13 12:50:00,77.2,66.6,29.58,SE,130,4.0,0.0,70,0.00,,,0.08,WeatherTracker,2013-09-13 16:50:00,
2013-09-13 12:55:00,77.3,67.6,29.58,NW,320,1.0,0.0,72,0.00,,,0.08,WeatherTracker,2013-09-13 16:55:00,
2013-09-13 13:00:00,77.6,67.8,29.58,NE,34,1.0,0.0,72,0.00,,,0.08,WeatherTracker,2013-09-13 17:00:00,
2013-09-13 13:05:00,77.8,67.2,29.58,NNW,328,1.0,0.0,70,0.00,,,0.08,WeatherTracker,2013-09-13 17:05:00,
2013-09-13 13:10:00,78.2,67.6,29.58,West,267,1.0,0.0,70,0.00,,,0.08,WeatherTracker,2013-09-13 17:10:00,
2013-09-13 13:15:00,78.7,67.2,29.58,East,94,1.0,0.0,68,0.00,,,0.08,WeatherTracker,2013-09-13 17:15:00,
2013-09-13 13:25:00,79.4,67.0,29.57,NE,38,1.0,0.0,66,0.00,,,0.08,WeatherTracker,2013-09-13 17:25:00,
2013-09-13 13:30:00,78.9,66.6,29.57,North,355,1.0,0.0,66,0.00,,,0.08,WeatherTracker,2013-09-13 17:30:00,
2013-09-13 13:40:00,78.5,66.6,29.57,North,355,1.0,0.0,67,0.00,,,0.08,WeatherTracker,2013-09-13 17:40:00,
2013-09-13 13:50:00,78.0,66.1,29.57,NNW,340,2.0,0.0,67,0.00,,,0.08,WeatherTracker,2013-09-13 17:50:00,
2013-09-13 13:55:00,77.7,66.3,29.57,NNW,331,2.0,0.0,68,0.00,,,0.08,WeatherTracker,2013-09-13 17:55:00,
2013-09-13 14:05:00,78.8,67.3,29.56,WNW,297,4.0,0.0,68,0.00,,,0.08,WeatherTracker,2013-09-13 18:05:00,
2013-09-13 14:10:00,79.3,66.0,29.56,NW,312,10.0,0.0,64,0.00,,,0.08,WeatherTracker,2013-09-13 18:10:00,
2013-09-13 14:20:00,78.9,65.2,29.56,WNW,293,4.0,0.0,63,0.00,,,0.08,WeatherTracker,2013-09-13 18:20:00,
2013-09-13 14:30:00,78.7,65.0,29.56,NW,316,2.0,0.0,63,0.00,,,0.08,WeatherTracker,2013-09-13 18:30:00,
2013-09-13 14:35:00,78.8,66.5,29.57,North,355,0.0,0.0,66,0.00,,,0.08,WeatherTracker,2013-09-13 18:35:00,
2013-09-13 14:40:00,78.4,65.2,29.57,NW,315,4.0,0.0,64,0.00,,,0.08,WeatherTracker,2013-09-13 18:40:00,
2013-09-13 14:50:00,77.7,65.8,29.57,NW,326,2.0,0.0,67,0.00,,,0.08,WeatherTracker,2013-09-13 18:50:00,
2013-09-13 15:00:00,77.8,65.9,29.57,NW,314,3.0,0.0,67,0.00,,,0.08,WeatherTracker,2013-09-13 19:00:00,
2013-09-13 15:05:00,77.7,65.0,29.57,NNW,328,5.0,0.0,65,0.00,,,0.08,WeatherTracker,2013-09-13 19:05:00,
2013-09-13 15:10:00,77.7,64.5,29.57,ENE,71,1.0,0.0,64,0.00,,,0.08,WeatherTracker,2013-09-13 19:10:00,
2013-09-13 15:20:00,77.8,65.1,29.58,WSW,250,1.0,0.0,65,0.00,,,0.08,WeatherTracker,2013-09-13 19:20:00,
2013-09-13 15:30:00,77.7,63.6,29.58,WNW,302,6.0,0.0,62,0.00,,,0.08,WeatherTracker,2013-09-13 19:30:00,
2013-09-13 15:40:00,77.5,64.3,29.58,WNW,299,4.0,0.0,64,0.00,,,0.08,WeatherTracker,2013-09-13 19:40:00,
2013-09-13 15:45:00,77.3,64.6,29.58,West,278,1.0,0.0,65,0.00,,,0.08,WeatherTracker,2013-09-13 19:45:00,
2013-09-13 15:55:00,76.7,64.9,29.58,ENE,74,2.0,0.0,67,0.00,,,0.08,WeatherTracker,2013-09-13 19:55:00,
2013-09-13 16:00:00,76.3,65.4,29.59,NE,36,1.0,0.0,69,0.00,,,0.08,WeatherTracker,2013-09-13 20:00:00,
2013-09-13 16:05:00,75.7,64.4,29.59,ENE,63,7.0,0.0,68,0.00,,,0.08,WeatherTracker,2013-09-13 20:05:00,
2013-09-13 16:15:00,74.4,64.8,29.59,North,360,1.0,0.0,72,0.00,,,0.08,WeatherTracker,2013-09-13 20:15:00,
2013-09-13 16:25:00,73.3,64.1,29.60,North,355,2.0,0.0,73,0.00,,,0.08,WeatherTracker,2013-09-13 20:25:00,
2013-09-13 16:30:00,72.9,63.7,29.60,ESE,107,3.0,0.0,73,0.00,,,0.08,WeatherTracker,2013-09-13 20:30:00,
2013-09-13 16:35:00,72.7,63.9,29.60,North,355,2.0,0.0,74,0.00,,,0.08,WeatherTracker,2013-09-13 20:35:00,
2013-09-13 16:45:00,72.4,64.0,29.59,NNE,26,1.0,0.0,75,0.00,,,0.08,WeatherTracker,2013-09-13 20:45:00,
2013-09-13 16:50:00,72.2,64.2,29.60,ESE,123,1.0,0.0,76,0.00,,,0.08,WeatherTracker,2013-09-13 20:50:00,
2013-09-13 17:00:00,71.6,62.1,29.62,ENE,59,8.0,0.0,72,0.00,,,0.08,WeatherTracker,2013-09-13 21:00:00,
2013-09-13 17:10:00,71.3,61.8,29.62,South,175,4.0,0.0,72,0.00,,,0.08,WeatherTracker,2013-09-13 21:10:00,
2013-09-13 17:15:00,71.3,61.8,29.62,ENE,78,7.0,0.0,72,0.00,,,0.08,WeatherTracker,2013-09-13 21:15:00,
2013-09-13 17:25:00,71.3,61.0,29.62,East,81,2.0,0.0,70,0.00,,,0.08,WeatherTracker,2013-09-13 21:25:00,
2013-09-13 17:30:00,71.2,60.9,29.62,NE,55,12.0,0.0,70,0.00,,,0.08,WeatherTracker,2013-09-13 21:30:00,
2013-09-13 17:35:00,70.8,60.1,29.62,SE,130,4.0,0.0,69,0.00,,,0.08,WeatherTracker,2013-09-13 21:35:00,
2013-09-13 17:40:00,70.3,59.6,29.63,SE,138,5.0,0.0,69,0.00,,,0.08,WeatherTracker,2013-09-13 21:40:00,
2013-09-13 17:45:00,69.9,59.7,29.63,NW,317,2.0,0.0,70,0.00,,,0.08,WeatherTracker,2013-09-13 21:45:00,
2013-09-13 17:50:00,69.7,59.5,29.63,East,80,2.0,0.0,70,0.00,,,0.08,WeatherTracker,2013-09-13 21:50:00,
2013-09-13 18:00:00,68.9,59.5,29.64,North,5,4.0,0.0,72,0.00,,,0.08,WeatherTracker,2013-09-13 22:00:00,
2013-09-13 18:10:00,68.5,59.9,29.64,SSE,159,2.0,0.0,74,0.00,,,0.08,WeatherTracker,2013-09-13 22:10:00,
2013-09-13 18:20:00,68.3,60.1,29.64,ENE,59,4.0,0.0,75,0.00,,,0.08,WeatherTracker,2013-09-13 22:20:00,
2013-09-13 18:25:00,68.0,60.1,29.65,NE,48,3.0,0.0,76,0.00,,,0.08,WeatherTracker,2013-09-13 22:25:00,
2013-09-13 18:30:00,67.8,60.0,29.65,SSW,211,0.0,0.0,76,0.00,,,0.08,WeatherTracker,2013-09-13 22:30:00,
2013-09-13 18:40:00,67.4,59.9,29.66,SE,128,2.0,0.0,77,0.00,,,0.08,WeatherTracker,2013-09-13 22:40:00,
2013-09-13 18:50:00,67.0,59.9,29.67,ENE,77,1.0,0.0,78,0.00,,,0.08,WeatherTracker,2013-09-13 22:50:00,
2013-09-13 19:00:00,66.7,60.3,29.68,NNW,346,1.0,0.0,80,0.00,,,0.08,WeatherTracker,2013-09-13 23:00:00,
2013-09-13 19:10:00,66.2,59.8,29.68,NE,42,1.0,0.0,80,0.00,,,0.08,WeatherTracker,2013-09-13 23:10:00,
2013-09-13 19:15:00,66.0,59.6,29.69,East,82,6.0,0.0,80,0.00,,,0.08,WeatherTracker,2013-09-13 23:15:00,
2013-09-13 19:20:00,65.8,59.5,29.69,SSE,153,0.0,0.0,80,0.00,,,0.08,WeatherTracker,2013-09-13 23:20:00,
2013-09-13 19:30:00,65.4,59.4,29.69,SSW,213,1.0,0.0,81,0.00,,,0.08,WeatherTracker,2013-09-13 23:30:00,
2013-09-13 19:40:00,65.0,59.0,29.70,East,92,6.0,0.0,81,0.00,,,0.08,WeatherTracker,2013-09-13 23:40:00,
2013-09-13 19:45:00,64.9,58.9,29.70,East,101,0.0,0.0,81,0.00,,,0.08,WeatherTracker,2013-09-13 23:45:00,
2013-09-13 19:50:00,64.8,59.2,29.70,North,350,2.0,0.0,82,0.00,,,0.08,WeatherTracker,2013-09-13 23:50:00,
2013-09-13 19:55:00,64.7,59.1,29.71,NNE,31,0.0,0.0,82,0.00,,,0.08,WeatherTracker,2013-09-13 23:55:00,
2013-09-13 20:05:00,64.3,58.7,29.71,NE,48,0.0,0.0,82,0.00,,,0.08,WeatherTracker,2013-09-14 00:05:00,
2013-09-13 20:15:00,64.1,58.8,29.71,NE,46,0.0,0.0,83,0.00,,,0.08,WeatherTracker,2013-09-14 00:15:00,
2013-09-13 20:25:00,63.9,58.3,29.72,SE,144,1.0,0.0,82,0.00,,,0.08,WeatherTracker,2013-09-14 00:25:00,
2013-09-13 20:35:00,63.8,58.2,29.72,SSE,163,0.0,0.0,82,0.00,,,0.08,WeatherTracker,2013-09-14 00:35:00,
2013-09-13 20:45:00,63.6,58.3,29.73,ESE,105,0.0,0.0,83,0.00,,,0.08,WeatherTracker,2013-09-14 00:45:00,
2013-09-13 20:50:00,63.4,58.1,29.73,ENE,65,0.0,0.0,83,0.00,,,0.08,WeatherTracker,2013-09-14 00:50:00,
2013-09-13 20:55:00,63.4,58.5,29.73,ESE,109,0.0,0.0,84,0.00,,,0.08,WeatherTracker,2013-09-14 00:55:00,
2013-09-13 21:00:00,63.2,58.3,29.73,ESE,111,0.0,0.0,84,0.00,,,0.08,WeatherTracker,2013-09-14 01:00:00,
2013-09-13 21:05:00,63.0,58.4,29.73,NE,51,0.0,0.0,85,0.00,,,0.08,WeatherTracker,2013-09-14 01:05:00,
2013-09-13 21:15:00,62.6,58.0,29.73,NNE,29,1.0,0.0,85,0.00,,,0.08,WeatherTracker,2013-09-14 01:15:00,
2013-09-13 21:20:00,62.4,57.8,29.73,NNE,16,0.0,0.0,85,0.00,,,0.08,WeatherTracker,2013-09-14 01:20:00,
2013-09-13 21:30:00,62.1,57.5,29.73,WNW,300,2.0,0.0,85,0.00,,,0.08,WeatherTracker,2013-09-14 01:30:00,
2013-09-13 21:35:00,61.9,57.3,29.73,NNW,347,0.0,0.0,85,0.00,,,0.08,WeatherTracker,2013-09-14 01:35:00,
2013-09-13 21:40:00,61.8,57.2,29.73,ESE,110,1.0,0.0,85,0.00,,,0.08,WeatherTracker,2013-09-14 01:40:00,
2013-09-13 21:45:00,61.7,57.1,29.73,East,89,2.0,0.0,85,0.00,,,0.08,WeatherTracker,2013-09-14 01:45:00,
2013-09-13 21:50:00,61.6,57.0,29.73,NNE,15,1.0,0.0,85,0.00,,,0.08,WeatherTracker,2013-09-14 01:50:00,
2013-09-13 22:00:00,61.4,57.2,29.74,ENE,58,2.0,0.0,86,0.00,,,0.08,WeatherTracker,2013-09-14 02:00:00,
2013-09-13 22:10:00,61.2,57.0,29.74,North,355,0.0,0.0,86,0.00,,,0.08,WeatherTracker,2013-09-14 02:10:00,
2013-09-13 22:15:00,61.1,56.9,29.75,NE,50,1.0,0.0,86,0.00,,,0.08,WeatherTracker,2013-09-14 02:15:00,
2013-09-13 22:25:00,61.0,56.8,29.75,North,5,1.0,0.0,86,0.00,,,0.08,WeatherTracker,2013-09-14 02:25:00,
2013-09-13 22:35:00,61.0,56.8,29.75,East,95,5.0,0.0,86,0.00,,,0.08,WeatherTracker,2013-09-14 02:35:00,
2013-09-13 22:45:00,60.9,56.4,29.75,ESE,103,2.0,0.0,85,0.00,,,0.08,WeatherTracker,2013-09-14 02:45:00,
2013-09-13 22:55:00,60.9,56.0,29.75,ESE,111,0.0,0.0,84,0.00,,,0.08,WeatherTracker,2013-09-14 02:55:00,
2013-09-13 23:00:00,60.8,55.9,29.76,ENE,67,2.0,0.0,84,0.00,,,0.08,WeatherTracker,2013-09-14 03:00:00,
2013-09-13 23:05:00,60.7,55.5,29.76,North,5,1.0,0.0,83,0.00,,,0.08,WeatherTracker,2013-09-14 03:05:00,
2013-09-13 23:10:00,60.7,55.5,29.76,North,5,3.0,0.0,83,0.00,,,0.08,WeatherTracker,2013-09-14 03:10:00,
2013-09-13 23:20:00,60.7,55.2,29.76,NE,46,3.0,0.0,82,0.00,,,0.08,WeatherTracker,2013-09-14 03:20:00,
2013-09-13 23:30:00,60.6,54.7,29.75,NNE,15,2.0,0.0,81,0.00,,,0.08,WeatherTracker,2013-09-14 03:30:00,
2013-09-13 23:35:00,60.6,54.7,29.76,NE,53,3.0,0.0,81,0.00,,,0.08,WeatherTracker,2013-09-14 03:35:00,
2013-09-13 23:40:00,60.6,54.7,29.76,NE,43,4.0,0.0,81,0.00,,,0.08,WeatherTracker,2013-09-14 03:40:00,
2013-09-13 23:45:00,60.5,54.6,29.76,SE,126,1.0,0.0,81,0.00,,,0.08,WeatherTracker,2013-09-14 03:45:00,
2013-09-13 23:55:00,60.4,54.5,29.76,SSW,213,1.0,0.0,81,0.00,,,0.08,WeatherTracker,2013-09-14 03:55:00,